Tracking 35237 objects as of 6-Sep-2026
HD Live streaming from Space Station
objects crossing your sky now

FLOCK 4V 8


FLOCK 4V 8 is no longer on orbit
FLOCK 4V 8 is classified as:


NORAD ID: 46288
Int'l Code: 2020-061S
Launch date: September 3, 2020
Source: United States (US)
Launch site: FRENCH GUIANA (FRGUI)
Decay date: 2024-11-26
Your satellite tracking list
Your tracking list is empty




NASA's NSSDC Master Catalog

Two Line Element Set (TLE):
1 46288U 20061S   24325.46868183  .16601642  25145-5  41940-3 0  9996
2 46288  97.3106  43.6298 0012998 274.8307  85.1510 16.44887346234187
Source of the keplerian elements: AFSPC